TimeCST,TemperatureF,Dew PointF,Humidity,Sea Level PressureIn,VisibilityMPH,Wind Direction,Wind SpeedMPH,Gust SpeedMPH,PrecipitationIn,Events,Conditions,WindDirDegrees,DateUTC
12:53 AM,42.1,39.9,92,30.18,10.0,Calm,Calm,-,N/A,,Clear,0,2012-11-09 06:53:00
1:53 AM,41.0,39.0,93,30.18,10.0,Calm,Calm,-,N/A,,Clear,0,2012-11-09 07:53:00
2:53 AM,41.0,39.0,93,30.17,8.0,Calm,Calm,-,N/A,,Clear,0,2012-11-09 08:53:00
3:53 AM,39.9,37.9,93,30.17,10.0,Calm,Calm,-,N/A,,Clear,0,2012-11-09 09:53:00
4:53 AM,39.9,37.0,89,30.19,7.0,Calm,Calm,-,N/A,,Clear,0,2012-11-09 10:53:00
5:53 AM,39.0,37.0,93,30.20,10.0,Calm,Calm,-,N/A,,Clear,0,2012-11-09 11:53:00
6:26 AM,37.4,35.6,93,30.21,2.0,Calm,Calm,-,N/A,,Clear,0,2012-11-09 12:26:00
6:45 AM,37.4,35.6,93,30.22,5.0,Calm,Calm,-,N/A,,Clear,0,2012-11-09 12:45:00
6:53 AM,39.0,37.0,93,30.22,8.0,Calm,Calm,-,N/A,,Clear,0,2012-11-09 12:53:00
7:53 AM,48.0,44.1,86,30.24,10.0,Calm,Calm,-,N/A,,Clear,0,2012-11-09 13:53:00
8:53 AM,55.9,44.1,64,30.24,10.0,SSE,4.6,-,N/A,,Clear,150,2012-11-09 14:53:00
9:53 AM,62.1,45.0,53,30.24,10.0,South,8.1,-,N/A,,Clear,170,2012-11-09 15:53:00
10:53 AM,66.9,44.1,44,30.22,10.0,SSE,10.4,-,N/A,,Clear,160,2012-11-09 16:53:00
11:53 AM,71.1,46.0,41,30.19,10.0,Variable,3.5,-,N/A,,Clear,0,2012-11-09 17:53:00
12:53 PM,73.9,43.0,33,30.16,10.0,SSE,8.1,-,N/A,,Clear,150,2012-11-09 18:53:00
1:53 PM,75.9,41.0,29,30.13,10.0,SE,8.1,-,N/A,,Clear,130,2012-11-09 19:53:00
2:53 PM,77.0,44.1,31,30.12,10.0,SSE,9.2,-,N/A,,Clear,160,2012-11-09 20:53:00
3:53 PM,75.9,46.9,36,30.12,10.0,SSE,6.9,-,N/A,,Clear,160,2012-11-09 21:53:00
4:53 PM,72.0,48.9,44,30.12,10.0,South,4.6,-,N/A,,Clear,170,2012-11-09 22:53:00
5:53 PM,63.0,51.1,65,30.12,10.0,SSE,3.5,-,N/A,,Clear,150,2012-11-09 23:53:00
6:53 PM,59.0,52.0,78,30.14,10.0,Calm,Calm,-,N/A,,Clear,0,2012-11-10 00:53:00
7:53 PM,57.9,52.0,81,30.15,10.0,Calm,Calm,-,N/A,,Clear,0,2012-11-10 01:53:00
8:53 PM,57.0,52.0,83,30.16,10.0,Calm,Calm,-,N/A,,Clear,0,2012-11-10 02:53:00
9:53 PM,54.0,51.1,90,30.17,10.0,Calm,Calm,-,N/A,,Clear,0,2012-11-10 03:53:00
10:53 PM,52.0,50.0,93,30.17,10.0,Calm,Calm,-,N/A,,Clear,0,2012-11-10 04:53:00
11:53 PM,51.1,48.9,92,30.16,2.5,Calm,Calm,-,N/A,,Clear,0,2012-11-10 05:53:00